Regional Weather Roundup
Issued by NWS Green Bay, WI

Home | Current Version | Previous Version | Graphics & Text | Print | Product List | Glossary Off
Versions: 1 2 3 4 5 6 7 8 9 10 11 12 13 14 15 16 17 18 19 20 21 22 23 24 25 26 27 28 29 30 31 32 33 34 35 36 37 38 39 40 41 42 43 44 45 46 47 48 49 50

000
ASUS43 KGRB 131811
RWRGRB

NORTH-CENTRAL AND NORTHEAST WISCONSIN REGIONAL WEATHER ROUNDUP
NATIONAL WEATHER SERVICE GREEN BAY WI
1200 PM CST WED DEC 13 2017

WIZ005-009-010>012-018-019-131900-
NORTH CENTRAL WISCONSIN

CITY           SKY/WX    TMP DP  RH WIND       PRES   REMARKS
IRONWOOD       LGT SNOW  15  10  80 NE8       29.55R WCI   4
MANITOWISH WTR LGT SNOW  14  11  89 NE8       29.46S WCI   2
ARBOR VITAE    LGT SNOW  17  13  85 NE6       29.44S WCI   8
EAGLE RIVER    LGT SNOW  14  10  81 E12       29.44F VSB 3/4 WCI   1
LAND O LAKES   LGT SNOW  15  10  83 NE10G16   29.48F WCI   2
RHINELANDER    LGT SNOW  15  12  88 NE8       29.42F VSB 3/4 WCI   4
PHILLIPS       LGT SNOW  14  10  84 N7        29.45R WCI   4
ANTIGO         LGT SNOW  18  15  90 NE14      29.38F WCI   4
TOMAHAWK       LGT SNOW  15  11  84 NE6       29.42S VSB 1   WCI   7
MERRILL        LGT SNOW  17  13  84 NE10      29.40F WCI   5
$$

WIZ013-073-131900-
NORTHEAST WISCONSIN

CITY           SKY/WX    TMP DP  RH WIND       PRES   REMARKS
IRON MOUNTAIN  SNOW      17  13  84 NE9       29.47F VSB 1/2 WCI   6
MARINETTE      LGT SNOW  26  24  92 E17       29.47F FOG
OCONTO         CLOUDY    27  24  91 E10G20    29.42F VSB 1/2
$$

WIZ017-030-035>037-045-131900-
CENTRAL WISCONSIN

CITY           SKY/WX    TMP DP  RH WIND       PRES   REMARKS
MEDFORD        LGT SNOW  16  12  84 NE7       29.40R WCI   6
WAUSAU         LGT SNOW  18  14  84 NE6       29.37F VSB 1   WCI  10
MOSINEE        LGT SNOW  18  16  93 N8        29.38F VSB 3/4 WCI   7
MARSHFIELD     LGT SNOW  19  15  84 NE8       29.37R VSB 3/4 WCI   9
WISC RAPIDS    CLOUDY    21  17  84 NE9       29.38F
STEVENS POINT  CLOUDY    19  18  95 N9        29.37F WCI   8
WAUPACA        CLOUDY    27  22  82 N3        29.36F
SHAWANO        LGT SNOW  24  22  89 NE8       29.38F
CLINTONVILLE   LGT SNOW  25  19  80 N9        29.37F
WAUTOMA        CLOUDY    23  20  88 NE7       29.34F
$$

WIZ038-039-048-051-131900-
FOX VALLEY

CITY           SKY/WX    TMP DP  RH WIND       PRES   REMARKS
NWS GREEN BAY  SNOW      28  25  88 E14       29.36F VSB 1/2
APPLETON       SNOW      27  23  86 CALM      29.34F VSB 1/2
OSHKOSH        SNOW      26  22  84 SE5       29.34F VSB 1/4
FOND DU LAC    CLOUDY    28  19  69 SE5       29.33F
$$

WIZ022-050-052-131900-
EAST CENTRAL WISCONSIN

CITY           SKY/WX    TMP DP  RH WIND       PRES   REMARKS
EPHRAIM        LGT SNOW  24  22  91 E14G20    29.46F VSB 3/4
WASHINGTON ISL LGT SNOW  23  20  88 E9G17     29.50F VSB 1
STURGEON BAY   SNOW      26  24  92 E13G23    29.43F VSB 1/4
MANITOWOC      SNOW      28  27  96 E23G32    29.35F VSB 1/4
SHEBOYGAN      LGT SNOW  29  26  89 S9        29.33F VSB 1
$$

LMZ563-521-522-541>543-131900-
LAKESHORE

STATION/POSITION TIME  TEMP    WIND        PRES    VSBY  WAVE
                       AIR SEA DIR/SP/G                  HT/PER
                 (UTC) (F)     (DEG/KT/KT) (MB)    (MI)  (FT/S)
SHEBOYGAN LKSHOR 1800   31     190/ 15/ 18  993.7F
KEWAUNEE LKSHORE 1742   27     110/ 20/ 27  995.2F
NORTHPORT PIER   1745   25      90/ 21      999.0F
MENOMINEE LKSHOR 1742   27      80/ 19/ 24  997.6F
$$




USA.gov is the U.S. government's official web portal to all federal, state and local government web resources and services.